SCP
5 6 6 7 8 9 9 9 8 6 4 3 3 3 3 3 2 2 3 3 2 2 3 4 5 6 6 6 5 5 5 5 5 5 4 3 3 4 4 4 3 2 2
5 5 6 7 8 9 9 9 8 7 5 4 4 4 3 3 2 3 3 3 2 2 3 4 5 6 6 6 5 5 5 5 5 5 4 3 3 3 4 4 4 3 3
4 5 7 8 8 8 8 8 8 8 6 5 5 4 4 3 2 3 3 3 2 3 3 4 5 5 5 6 6 6 6 5 5 5 5 4 4 4 5 4 4 4 4
5 6 7 8 8 7 7 7 8 8 7 6 6 5 4 4 3 3 3 3 2 3 3 4 4 5 6 6 7 7 7 6 6 6 6 5 5 5 5 5 4 4 4
5 6 7 7 7 7 7 8 8 8 7 7 7 6 5 4 4 3 3 3 3 3 3 3 4 6 6 7 7 7 8 7 7 6 6 6 5 5 5 5 5 5 5
5 5 6 6 6 6 7 7 8 8 7 7 7 7 5 5 4 3 3 3 3 3 3 3 4 5 6 7 7 7 8 8 8 7 6 6 5 5 4 4 4 4 4
4 5 6 5 5 6 6 8 9 9 8 8 8 8 7 5 4 3 3 3 3 3 3 3 3 3 4 5 6 7 7 8 8 8 7 6 5 5 4 3 3 3 3
3 4 5 5 5 5 7 10 11 10 9 9 9 9 8 6 3 3 3 3 3 3 3 2 2 2 3 4 5 6 7 8 8 8 7 6 5 4 4 3 2 2 2
3 3 4 5 5 6 9 13 14 11 9 9 8 8 7 5 4 3 3 3 3 3 2 2 2 2 2 3 4 5 6 7 7 7 6 6 4 4 3 2 2 1 1
3 3 4 5 5 8 12 15 14 11 8 7 6 5 6 5 4 3 2 2 2 2 2 2 2 2 2 2 3 3 4 4 4 4 4 4 3 2 2 2 2 1 1
2 3 3 5 6 9 13 15 12 8 6 6 5 5 6 6 6 4 2 2 2 2 2 2 2 2 2 2 2 2 2 2 2 2 2 2 2 2 2 2 2 1 1
3 3 4 5 8 11 12 12 9 7 6 6 6 6 7 7 6 4 3 3 2 2 2 2 2 2 2 2 2 2 2 2 2 2 2 2 2 2 2 2 2 2 2
3 3 5 7 10 11 11 10 9 8 7 7 7 7 8 7 6 5 5 4 3 2 2 2 2 2 2 2 2 2 2 2 2 2 3 3 2 2 2 2 2 2 2
3 4 6 9 11 11 10 10 10 9 9 8 8 8 7 7 6 6 5 4 3 2 2 2 2 2 2 2 2 2 2 2 2 2 3 3 2 2 2 2 2 2 2
3 4 7 9 11 11 11 11 11 11 10 10 9 8 7 7 6 6 5 4 3 3 2 2 2 2 2 1 1 1 1 2 2 2 2 2 2 2 2 2 2 2 2
4 4 6 8 10 11 11 11 12 12 12 10 9 7 7 6 6 5 4 4 4 3 3 3 3 2 2 1 1 1 1 2 2 2 2 2 2 2 2 2 2 2 2
5 5 7 9 10 11 12 12 13 13 13 11 9 7 6 6 5 4 4 4 4 4 4 3 3 2 2 1 1 1 1 2 2 2 2 2 2 2 2 2 2 2 2
7 8 9 10 11 12 12 13 14 14 13 11 9 7 7 6 6 5 5 5 5 5 5 4 3 3 2 1 0 1 1 1 1 1 2 2 2 2 2 2 3 3 3
9 10 11 12 13 13 14 15 15 15 14 12 10 8 8 8 8 8 8 7 6 5 5 5 4 3 2 2 1 1 1 2 1 1 2 2 2 2 2 2 3 3 3
11 12 13 14 15 15 16 16 16 16 14 12 10 9 9 10 10 11 11 10 8 7 6 6 5 4 4 3 2 1 2 2 2 2 2 2 2 1 1 2 2 3 3
13 14 15 16 17 18 18 17 17 16 14 12 10 10 11 11 12 12 12 11 10 8 7 6 6 5 4 4 2 1 2 3 4 3 3 3 2 1 1 1 2 2 2
14 15 16 17 18 19 19 18 17 15 13 11 11 12 12 11 11 12 12 11 9 8 7 6 6 5 4 4 3 2 2 3 4 5 4 3 2 1 0 0 1 1 1
14 15 16 17 17 17 17 17 15 14 13 13 12 11 10 9 9 9 10 10 9 8 8 7 6 5 5 4 4 3 1 1 3 5 4 3 2 1 0 0 0 0 0
15 15 15 15 15 15 15 15 15 14 14 14 12 10 8 7 6 7 7 8 8 8 7 6 5 5 5 5 4 3 2 1 2 4 4 3 2 1 1 1 0 0 0
15 15 13 12 13 15 16 17 16 15 14 12 9 7 6 5 5 5 5 5 5 5 4 4 3 3 4 3 2 1 1 2 2 4 5 5 4 2 2 1 1 0 0
15 13 10 10 12 16 18 19 18 16 14 10 8 6 5 5 4 4 4 3 3 2 2 2 2 2 2 1 0 0 0 1 2 3 5 6 5 3 2 1 1 1 0
Wind_Speed
9 10 9 9 9 7 6 5 5 4 3 3 3 3 2 2 2 3 3 4 3 3 2 1 2 2 1 2 2 1 2 2 2 1 1 2 3 4 3 3 3 4 5
10 10 9 9 9 8 6 5 4 5 4 3 2 2 2 3 3 2 2 3 3 3 4 3 2 2 1 1 1 1 1 2 2 1 1 1 1 2 4 3 3 3 3
11 10 9 7 8 8 7 5 5 5 4 3 2 2 1 1 1 2 2 3 3 3 2 3 3 2 2 2 2 2 3 3 2 1 1 1 1 1 1 2 1 1 1
10 9 8 8 7 7 7 5 5 5 4 4 4 4 3 2 2 2 2 3 3 3 3 3 3 2 2 2 3 3 2 2 2 1 2 2 1 1 1 1 0 1 1
11 10 8 7 7 7 7 6 5 4 4 3 3 3 2 2 1 1 2 2 2 3 3 3 3 2 2 3 3 1 2 2 2 2 2 2 2 2 2 2 1 0 0
11 10 8 7 6 6 6 6 6 4 4 3 2 2 2 1 1 1 1 2 2 2 3 3 3 3 3 3 2 2 2 2 2 2 2 2 2 2 2 2 2 2 1
10 10 9 8 6 6 6 6 6 5 4 3 2 2 2 2 2 2 2 2 1 1 1 1 1 2 2 2 2 2 2 2 2 2 2 2 2 2 2 2 2 2 1
10 10 9 8 7 6 6 6 6 4 4 4 3 2 2 1 1 1 2 1 1 1 0 1 1 2 2 3 2 1 2 2 2 3 2 2 2 2 2 2 2 2 1
9 10 9 9 7 6 5 5 5 4 4 4 4 2 1 1 1 0 1 1 1 0 0 0 1 2 1 1 1 1 2 1 1 1 2 2 2 2 2 1 1 2 2
9 9 8 8 8 7 6 5 5 4 4 4 3 3 2 2 1 0 1 1 2 2 1 1 1 0 0 1 1 1 0 0 0 1 1 1 2 1 1 1 1 1 2
9 8 6 8 8 8 8 6 6 5 4 3 2 2 2 2 1 0 0 0 1 1 1 1 1 1 1 1 0 0 0 0 0 1 1 1 1 2 1 1 1 0 1
9 9 8 7 6 7 7 6 5 5 4 3 3 2 2 2 1 1 0 0 0 0 0 1 1 0 1 1 0 0 0 0 1 1 1 2 1 1 2 1 1 0 1
7 8 7 6 6 5 5 5 4 4 4 4 3 3 2 2 1 0 0 0 0 0 0 1 0 0 1 1 1 1 1 1 1 1 1 1 1 1 1 1 1 1 0
7 7 6 5 5 5 5 4 3 4 4 4 3 3 2 2 1 1 1 1 0 0 1 1 1 1 1 2 2 1 1 1 1 1 1 2 2 2 2 1 1 1 0
7 7 6 6 5 5 4 4 4 4 4 4 3 3 3 2 2 2 2 1 1 1 2 2 2 2 2 3 3 1 1 1 1 1 2 3 4 4 3 2 2 2 1
7 6 7 7 5 4 4 4 4 4 3 3 3 3 2 2 2 2 2 2 2 2 2 2 3 3 4 6 6 4 2 1 1 1 1 3 3 4 4 5 5 3 1
5 5 6 6 6 5 4 4 3 4 3 2 2 2 2 2 2 2 2 2 2 2 2 2 2 3 4 6 6 5 2 2 2 2 2 2 3 3 2 2 3 4 4
5 4 5 6 6 5 5 4 4 3 3 2 2 2 1 1 2 2 2 1 2 2 2 1 2 3 4 6 6 5 1 2 3 3 3 3 4 5 4 3 3 4 4
5 4 5 5 5 5 5 5 4 4 3 2 2 1 1 1 2 2 1 1 2 2 2 2 3 3 4 5 5 4 1 2 3 4 5 4 4 7 6 2 2 2 2
5 5 6 6 6 5 5 5 4 4 3 2 1 1 2 1 1 1 1 1 1 1 2 3 3 3 3 3 4 3 0 2 3 3 5 7 6 7 7 3 2 2 2
6 6 6 5 5 5 5 4 4 3 2 2 2 2 2 1 1 1 1 2 2 2 2 3 3 3 3 4 3 4 2 1 2 2 3 3 5 6 6 4 3 2 2
7 7 6 6 5 5 5 4 3 3 2 2 2 2 2 1 1 2 1 2 2 2 2 2 2 2 3 3 2 3 3 3 2 2 3 3 3 3 4 3 3 3 3
7 6 7 6 5 5 5 4 3 3 3 2 2 2 2 2 2 1 1 1 2 2 2 2 1 2 2 3 3 3 4 4 3 3 4 4 2 1 1 1 2 2 2
6 6 6 6 5 5 5 4 4 3 3 2 2 2 2 2 2 2 1 1 1 0 1 1 1 2 2 2 1 1 2 3 3 2 3 3 1 1 1 1 1 1 1
5 5 5 5 5 5 4 4 3 2 2 2 1 1 2 3 2 3 4 3 3 2 1 1 1 1 1 1 2 1 1 1 1 1 1 1 1 1 1 1 1 1 0
5 5 5 5 4 4 4 3 3 2 1 1 1 1 1 2 2 3 4 8 6 7 8 6 4 3 4 4 4 4 3 3 3 1 1 1 1 1 1 0 0 1 1
Wind_Direction
144 141 145 145 144 145 153 165 169 159 166 172 177 183 193 204 212 214 182 183 206 185 195 247 179 223 220 207 202 196 207 232 228 226 248 246 218 195 190 203 200 187 185
140 143 149 148 149 152 159 165 168 166 180 179 178 189 197 208 199 201 163 194 199 197 194 203 234 225 215 223 242 228 240 254 230 197 198 263 283 252 220 189 199 196 185
145 144 149 150 153 157 162 168 161 164 179 174 177 190 178 236 200 183 178 203 206 207 220 193 224 231 223 204 223 221 226 247 255 203 183 190 228 265 284 218 187 161 159
136 142 148 152 156 160 160 154 155 163 166 175 193 189 191 207 206 197 185 191 207 211 218 216 216 236 247 206 228 217 226 230 253 250 236 226 214 198 282 317 222 182 176
136 141 147 150 156 160 157 154 151 159 166 184 197 199 208 208 205 200 184 199 208 215 222 219 213 220 239 236 244 224 228 220 230 244 245 242 222 216 208 245 262 266 200
135 139 144 144 149 150 153 152 151 158 169 189 194 193 220 235 255 249 254 232 221 222 230 223 210 211 231 238 238 237 229 232 238 257 263 244 218 219 211 216 213 222 224
140 143 146 146 147 148 150 144 146 156 167 181 187 192 202 219 235 234 232 241 243 236 226 219 209 220 224 225 228 232 230 226 235 240 254 261 245 242 237 219 228 224 202
144 147 149 148 150 151 147 141 141 151 166 172 172 188 188 208 238 238 252 234 247 251 236 181 201 230 224 229 207 217 234 221 230 239 245 271 270 260 242 237 223 231 230
139 142 145 143 146 147 144 141 140 152 166 163 157 168 169 191 268 304 281 309 318 264 331 156 205 234 220 224 204 221 247 213 228 257 261 268 274 268 258 243 216 206 217
137 138 139 144 145 146 144 138 140 146 156 161 167 157 161 157 169 296 14 16 359 9 8 336 300 297 299 186 194 236 216 145 178 275 311 306 307 308 303 290 246 214 203
138 133 141 136 143 145 144 146 144 152 156 156 149 137 140 147 145 159 25 8 356 20 6 352 340 5 34 49 119 239 127 222 35 307 306 311 337 335 319 314 302 278 171
132 134 136 127 130 132 137 139 146 155 155 148 140 133 131 128 135 150 202 268 23 18 72 34 355 346 55 64 46 325 41 56 52 19 13 354 348 340 339 336 304 216 185
124 129 128 131 129 125 125 131 147 150 149 142 139 134 135 133 135 165 131 70 67 59 107 109 90 16 43 42 31 30 46 60 68 55 27 6 7 342 337 330 324 299 221
129 129 125 119 120 120 121 130 132 125 127 125 122 123 125 129 131 130 104 92 86 115 76 64 54 46 45 40 31 62 91 75 60 63 55 31 21 352 319 309 322 304 131
138 135 131 125 124 124 126 121 121 117 121 125 129 138 137 129 128 110 91 74 64 76 68 57 46 40 44 38 32 15 86 77 75 81 83 70 67 54 31 23 9 6 53
143 143 141 138 140 137 134 131 135 126 124 131 132 126 132 134 124 109 104 95 79 70 74 67 63 52 47 39 39 27 42 41 38 61 85 109 89 78 79 75 62 54 69
135 140 143 143 142 140 134 143 143 141 141 131 125 130 135 131 130 132 120 113 104 94 80 74 79 76 56 43 38 31 28 52 52 45 29 42 58 63 73 95 91 68 58
121 120 129 132 133 135 141 140 134 130 134 135 133 131 137 131 112 111 117 124 120 114 101 98 96 87 61 50 36 19 31 71 66 57 49 50 42 25 26 47 70 75 54
114 121 127 122 122 127 132 130 126 125 121 120 127 135 140 121 119 129 140 142 134 125 111 99 99 90 73 46 34 11 36 83 73 62 51 45 52 29 25 37 69 86 97
92 106 114 112 110 110 114 120 125 125 126 122 116 111 104 106 125 123 125 127 132 116 106 98 93 95 92 65 41 13 35 106 104 94 80 59 52 38 25 23 40 59 40
91 89 98 102 106 111 114 115 112 109 108 109 106 105 100 102 117 106 112 131 130 115 106 102 92 89 87 87 58 35 13 52 98 100 90 74 64 49 27 21 39 36 339
90 88 87 88 91 104 109 106 91 75 72 79 83 78 80 81 96 108 124 138 136 137 129 120 109 94 91 77 68 59 44 36 62 70 90 96 88 58 26 24 19 355 336
90 90 92 88 84 86 94 96 82 73 75 77 80 84 79 66 65 77 94 136 156 159 147 157 158 119 104 88 83 83 69 64 74 81 101 123 118 75 360 308 333 337 315
89 89 89 87 82 76 79 82 77 73 83 90 96 99 96 82 70 51 39 42 34 64 120 135 133 118 114 103 100 143 124 105 110 121 130 138 138 300 321 311 285 282 336
88 86 85 85 84 81 78 82 80 84 91 99 97 112 114 110 92 61 34 39 42 24 20 33 50 96 118 94 105 99 79 66 84 118 149 180 188 216 236 244 261 278 273
92 92 88 84 85 84 81 73 74 82 86 100 78 87 119 110 111 111 82 50 59 57 57 57 64 69 86 115 100 79 66 69 77 101 189 182 210 238 229 235 247 284 317